SCP
0 0 0 0 0 0 0 0 0 0 0 0 0 0 0 0 0 0 0 1 1 1 1 1 0 0 0 0 0 0 0 0 0 0 0 0 0 0 0 0 0 0 0 0 0 0 0 0 0
0 0 0 0 0 0 0 0 0 0 0 0 0 0 0 0 0 0 0 1 1 1 0 0 0 0 0 0 0 0 0 0 0 0 0 0 0 0 0 0 0 0 0 0 0 0 0 0 0
0 0 0 0 0 0 0 0 0 0 0 0 0 0 0 0 0 0 0 1 1 1 0 0 0 0 0 0 0 0 0 0 0 0 0 0 0 0 0 0 0 0 0 0 0 0 0 0 0
0 0 0 0 0 0 0 0 0 0 0 0 0 0 1 0 0 0 0 0 1 1 0 0 0 0 0 0 0 0 0 0 0 0 0 0 0 0 0 0 0 0 0 0 0 0 0 0 0
0 0 0 0 0 0 0 0 0 0 0 0 0 1 1 1 0 0 0 0 1 1 0 0 0 0 0 0 0 0 0 0 0 0 0 0 0 0 0 0 0 0 0 0 0 0 0 0 0
0 0 0 0 0 0 0 0 0 0 0 0 0 1 1 0 0 0 0 0 1 1 1 0 0 0 0 0 0 0 0 0 0 0 0 0 0 0 0 0 0 0 0 0 0 0 0 0 0
0 0 0 0 0 0 0 0 0 0 0 0 0 1 1 1 0 0 0 0 1 1 1 0 0 0 0 0 0 0 0 0 0 0 0 0 0 0 0 0 0 0 0 0 0 0 0 0 0
0 0 0 0 0 0 0 0 0 0 0 0 0 1 1 1 0 0 0 1 1 1 0 0 0 0 0 0 0 0 0 0 0 0 0 0 0 0 0 0 0 0 0 0 0 0 0 0 0
0 0 0 0 0 0 0 0 0 0 0 0 1 1 1 1 1 1 1 1 1 1 1 0 0 0 0 0 0 0 0 0 0 0 0 0 0 0 0 0 0 0 0 0 0 0 0 0 0
0 0 0 0 0 0 0 0 0 0 0 0 1 1 1 1 1 1 1 1 1 1 1 1 0 0 0 0 0 0 0 0 0 0 0 0 0 0 0 0 0 0 0 0 0 0 0 0 0
0 0 0 0 0 0 0 0 0 0 0 1 1 1 1 1 1 1 1 1 1 1 1 1 1 1 0 0 0 0 0 0 0 0 0 0 0 0 0 0 0 0 0 0 0 0 0 0 0
0 0 0 0 0 0 0 0 0 0 0 1 1 1 1 1 1 1 1 1 1 1 1 1 1 1 1 1 0 0 0 0 0 0 0 0 0 0 0 0 0 0 0 0 0 0 0 0 0
0 0 0 0 0 0 0 0 0 0 0 1 1 1 1 1 1 1 1 1 1 1 1 1 1 1 1 1 1 0 0 0 0 0 0 0 0 0 0 0 0 0 0 0 0 0 0 0 0
0 0 0 0 0 0 0 0 0 0 0 1 1 1 1 1 1 1 1 1 2 2 2 2 2 2 1 1 1 0 0 0 0 0 0 0 0 0 0 0 0 0 0 0 0 0 0 0 0
0 0 0 0 0 0 0 0 0 0 1 1 1 1 1 1 1 1 1 2 2 2 2 2 2 2 1 1 1 0 0 0 0 0 0 0 0 0 0 0 0 0 0 0 0 0 0 0 0
0 0 0 0 0 0 0 0 0 1 1 1 1 1 1 1 1 1 1 2 2 2 2 2 2 1 1 1 1 0 0 0 0 0 0 0 0 0 0 0 0 0 0 0 0 0 0 0 0
0 0 0 0 0 0 0 0 1 1 1 1 1 1 1 1 1 1 1 2 2 2 2 2 2 1 1 1 1 1 0 0 0 0 0 0 0 0 0 0 0 0 0 0 0 0 0 0 0
0 0 0 0 0 0 0 0 0 1 1 1 1 1 1 1 1 1 1 1 2 2 2 2 2 1 1 1 1 1 0 0 0 0 0 0 0 0 0 0 0 0 0 0 0 0 0 0 0
0 0 0 0 0 0 0 0 0 0 1 1 1 1 1 1 1 1 1 1 2 2 2 2 2 1 1 1 1 1 0 0 0 0 0 0 0 0 0 0 0 0 0 0 0 0 0 0 0
0 0 0 0 0 0 0 0 0 0 0 1 1 1 1 1 1 1 1 1 1 1 1 1 1 1 1 1 1 1 0 0 0 0 0 0 0 0 0 0 0 0 0 0 0 0 0 0 0
0 0 0 0 0 0 0 0 0 0 0 0 1 1 1 1 1 1 1 1 1 1 1 1 1 1 1 1 1 0 0 0 0 0 0 0 0 0 0 0 0 0 0 0 0 0 0 0 0
0 0 0 0 0 0 0 0 0 0 0 0 0 1 1 1 1 1 1 1 1 1 1 1 1 1 1 1 0 0 0 0 0 0 0 0 0 0 0 0 0 0 0 0 0 0 0 0 0
0 0 0 0 0 0 0 0 0 0 0 0 0 0 1 1 1 1 1 1 1 1 1 1 1 1 1 1 0 0 0 0 0 0 0 0 0 0 0 0 0 0 0 0 0 0 0 0 0
0 0 0 0 0 0 0 0 0 0 0 0 0 0 0 0 1 1 1 1 1 1 1 1 1 1 1 0 0 0 0 0 0 0 0 0 0 0 0 0 0 0 0 0 0 0 0 0 0
0 0 0 0 0 0 0 0 0 0 0 0 0 0 0 0 1 1 1 1 1 1 1 1 1 1 1 0 0 0 0 0 0 0 0 0 0 0 0 0 0 0 0 0 0 0 0 0 0
0 0 0 0 0 0 0 0 0 0 0 0 0 0 0 0 0 1 1 1 1 1 1 1 1 1 1 0 0 0 0 0 0 0 0 0 0 0 0 0 0 0 0 0 0 0 0 0 0
0 0 0 0 0 0 0 0 0 0 0 0 0 0 0 0 0 1 1 1 1 1 1 1 1 1 1 1 1 1 1 0 0 0 0 0 0 0 0 0 0 0 0 0 0 0 0 0 0
0 0 0 0 0 0 0 0 0 0 0 0 0 0 0 0 0 0 1 1 1 1 1 1 1 1 1 1 1 1 1 1 1 1 0 0 0 0 0 0 0 0 0 0 0 0 0 0 0
0 0 0 0 0 0 0 0 0 0 0 0 0 0 0 0 0 0 1 1 1 1 1 1 1 1 1 1 1 1 1 1 1 1 1 1 1 1 1 0 0 0 0 0 0 0 0 0 0
0 0 0 0 0 0 0 0 0 0 0 0 0 0 0 0 0 0 0 1 1 1 1 1 1 1 1 1 1 1 1 1 1 1 1 1 1 1 1 0 0 0 0 0 0 0 0 0 0
Wind_Speed
10 13 11 9 7 5 6 7 4 9 8 9 6 5 8 10 7 6 7 13 21 21 18 17 16 15 14 14 13 13 13 13 12 11 11 10 10 10 11 11 11 11 11 11 11 10 10 10 9
11 14 12 8 8 6 4 3 7 10 9 5 4 4 9 10 10 9 10 15 21 20 17 16 17 15 15 14 13 13 13 12 11 11 10 10 10 10 10 10 10 10 10 10 10 10 10 9 9
14 18 10 9 10 8 3 5 6 8 6 4 4 7 8 6 8 9 13 18 20 18 17 17 17 16 15 14 13 13 12 12 11 10 10 10 9 9 9 9 9 9 9 9 10 9 9 9 8
10 10 8 9 11 5 4 6 5 4 5 3 4 7 8 7 6 11 15 18 20 19 18 17 17 16 15 14 13 12 12 11 11 10 9 9 8 8 8 8 8 8 8 8 8 8 8 8 7
12 9 11 13 14 4 5 6 5 3 3 3 5 8 8 6 9 13 14 17 19 19 18 17 17 16 14 13 12 12 11 11 10 9 8 8 8 8 8 8 7 7 7 7 7 7 7 6 5
9 9 11 11 7 3 5 6 4 3 3 4 6 8 7 8 9 13 13 15 17 19 19 16 16 15 14 13 12 11 11 10 9 9 8 8 8 7 7 7 7 6 6 6 5 5 5 5 4
11 11 13 12 6 5 5 5 4 4 3 4 5 8 7 10 10 11 12 13 16 19 18 15 14 13 13 13 12 11 11 10 9 8 8 7 7 7 7 6 6 5 5 5 4 3 3 3 2
10 9 14 10 6 6 6 5 4 4 4 4 5 7 9 10 10 10 11 12 12 15 17 15 15 13 12 11 12 12 11 10 9 8 7 7 6 6 6 6 5 4 3 3 2 2 2 2 2
10 9 9 8 7 6 5 3 2 1 1 3 6 9 14 13 12 12 11 11 11 11 12 13 15 13 12 12 12 11 11 9 9 8 7 6 4 5 5 6 7 5 3 3 2 3 3 4 5
7 7 7 7 7 7 7 4 1 3 3 6 10 12 13 13 12 13 13 12 12 11 9 7 11 11 10 9 9 7 7 7 6 4 5 4 3 2 4 8 7 6 5 4 4 5 5 6 4
8 7 7 7 6 6 7 4 2 1 1 5 12 16 15 14 13 12 13 13 12 10 9 8 7 7 8 7 6 4 3 5 4 5 3 2 1 2 3 2 3 3 4 2 4 4 3 1 0
7 7 6 6 5 4 5 5 3 1 3 6 9 14 16 15 12 10 10 11 12 11 10 8 7 7 5 6 5 4 3 4 4 3 2 3 2 2 2 2 1 0 1 1 1 0 0 1 1
9 7 6 4 4 3 5 5 3 4 5 7 8 11 13 12 11 9 7 8 10 10 9 8 8 8 6 5 2 4 4 4 5 3 3 2 2 3 3 2 1 1 1 2 1 1 1 1 1
10 9 7 6 6 4 5 3 1 1 5 5 7 9 11 11 11 10 8 9 10 9 10 9 9 9 6 4 3 3 4 3 5 4 4 3 4 3 2 1 1 2 2 2 1 1 0 0 0
11 11 8 6 8 5 5 3 2 5 7 7 7 8 8 9 9 9 10 10 10 9 10 9 9 9 6 5 4 3 3 5 5 5 4 4 5 3 2 1 2 2 1 0 0 1 1 1 2
14 12 9 7 9 5 4 2 5 8 8 7 8 9 9 8 9 9 10 7 8 9 10 8 8 10 7 5 3 2 3 4 5 5 4 5 4 2 2 2 3 2 1 1 1 1 2 2 2
12 11 8 4 6 4 5 2 8 9 9 8 8 9 10 9 9 9 10 8 8 8 9 8 7 9 8 6 3 3 3 3 4 4 4 4 3 1 2 3 2 3 1 2 3 3 2 2 2
10 11 8 6 2 5 6 3 7 10 9 9 9 10 10 10 10 10 10 10 9 9 9 9 8 8 7 5 3 2 4 3 4 5 4 4 3 2 2 3 1 3 3 3 3 2 1 1 2
12 12 12 8 4 6 7 4 5 9 9 9 9 10 11 11 11 11 11 11 11 10 9 10 9 8 6 4 4 4 3 3 4 5 6 4 3 3 2 3 1 2 4 3 3 2 2 1 1
13 13 12 8 6 7 8 5 3 7 9 9 10 11 12 12 12 12 12 12 12 11 11 10 9 9 8 5 4 3 4 3 3 5 5 4 4 3 3 2 1 3 3 3 2 2 3 2 2
12 12 12 11 11 9 7 5 3 6 8 10 10 11 12 13 13 13 13 13 12 12 12 11 10 10 8 7 4 4 3 2 3 6 4 4 4 2 2 2 2 1 1 3 1 2 2 3 1
12 11 12 14 13 9 9 5 4 8 9 10 11 11 12 12 12 13 12 13 13 12 12 11 11 10 8 8 7 7 6 5 5 5 5 5 4 4 4 3 2 1 1 2 1 3 3 2 2
13 13 14 13 10 9 8 6 3 7 7 8 10 11 11 12 13 14 13 13 12 13 12 12 11 10 9 8 7 6 5 4 4 5 7 6 5 4 4 4 3 1 0 3 3 2 3 3 3
13 13 13 8 4 5 7 6 3 5 5 7 9 10 11 12 13 14 14 12 11 12 12 12 12 10 9 9 8 7 6 4 5 6 7 5 5 5 5 5 4 3 2 3 2 0 0 1 3
11 9 8 7 2 6 6 5 1 6 5 7 9 10 10 11 12 13 14 13 12 13 13 13 13 11 11 10 8 8 6 4 4 5 6 5 5 5 6 6 5 3 3 3 2 2 0 1 1
11 10 9 9 9 6 3 2 2 5 6 8 10 10 11 12 12 13 14 14 13 13 13 13 13 11 11 10 8 7 7 5 5 6 4 5 4 5 8 6 6 4 4 4 3 2 3 2 1
12 11 11 10 12 8 1 2 6 2 4 7 10 11 11 11 12 13 14 14 13 13 13 13 13 12 11 11 9 8 8 7 5 6 5 4 3 5 8 7 6 5 5 3 3 3 2 2 2
11 10 8 7 7 8 1 3 2 5 1 4 8 11 11 11 12 13 14 14 13 13 12 12 12 11 11 10 10 10 8 7 5 5 6 5 4 4 7 7 6 6 5 5 4 4 4 3 3
8 8 8 8 7 8 4 1 4 5 4 4 7 10 10 11 12 12 12 13 14 14 13 12 12 11 11 11 10 8 9 9 7 6 6 5 4 5 6 6 6 6 6 6 5 5 4 5 4
7 7 8 7 7 8 6 2 1 3 1 2 5 10 9 8 10 12 13 13 13 14 14 12 12 12 11 10 9 8 8 8 9 8 7 6 6 6 6 6 6 7 7 7 7 7 6 5 6
Wind_Direction
225 237 234 245 243 242 276 290 5 36 55 50 44 48 71 63 75 106 131 122 118 120 124 122 119 118 117 116 116 115 114 113 111 109 106 103 98 95 93 90 88 87 86 84 83 83 81 77 75
252 248 241 246 255 265 254 324 39 55 60 68 69 69 78 74 87 119 127 125 122 125 131 125 123 121 119 119 118 117 117 115 113 110 106 102 99 96 92 90 88 88 86 86 84 83 81 78 75
258 263 261 251 252 272 327 54 51 72 77 68 80 67 73 85 104 122 128 130 125 126 123 124 128 125 123 122 121 121 120 118 115 112 108 104 101 99 96 93 92 91 88 87 87 86 84 81 76
251 244 243 262 277 300 12 49 46 72 89 72 86 86 79 78 106 128 137 134 125 125 124 128 129 127 126 126 126 124 123 122 120 117 114 109 105 100 97 93 91 92 90 89 91 89 87 85 77
242 258 251 264 277 325 28 41 24 41 75 80 90 101 94 90 122 132 144 132 130 129 126 131 130 129 128 128 127 127 126 125 123 121 118 113 110 104 99 95 92 92 93 92 91 92 90 88 79
255 258 271 277 291 34 50 47 22 45 85 99 99 105 101 121 134 144 146 137 134 128 127 130 131 132 132 133 133 133 131 130 128 125 121 117 114 109 105 97 94 93 94 96 94 93 96 95 86
260 277 278 288 329 47 45 33 18 28 49 70 86 108 115 129 141 149 143 131 130 128 130 138 138 137 137 138 139 138 137 136 134 131 128 130 129 127 122 114 105 100 100 101 102 105 106 108 114
260 283 294 309 348 33 50 37 35 17 74 100 105 121 138 138 151 146 133 122 124 130 136 145 147 146 149 146 145 143 144 143 143 144 148 151 154 154 150 142 127 120 116 119 125 138 159 174 195
264 270 291 340 357 1 25 25 81 79 162 107 93 110 133 150 156 145 132 127 127 129 137 151 146 153 158 153 148 151 153 155 156 162 170 177 188 172 164 139 147 157 159 164 180 195 208 217 215
258 274 320 0 356 349 352 351 316 206 184 123 109 111 131 154 158 154 149 144 139 135 131 133 144 156 155 147 147 159 164 158 177 164 173 188 185 169 139 143 163 174 182 190 202 222 231 233 220
276 302 335 348 0 348 334 330 300 267 182 140 140 143 154 167 168 163 156 153 145 143 131 134 145 137 130 130 152 146 149 152 162 149 149 136 113 110 112 144 162 187 189 194 182 217 241 228 229
273 300 315 322 339 321 320 313 303 13 90 108 137 148 155 170 171 164 161 153 145 143 135 143 133 113 112 125 128 139 142 136 120 107 72 80 66 59 70 64 21 283 141 118 99 185 86 22 349
274 280 282 296 302 325 309 294 325 65 85 113 135 150 159 170 166 157 155 150 144 143 136 130 116 103 98 95 129 123 114 117 114 109 81 63 80 63 64 64 12 344 51 76 51 50 48 344 293
303 306 306 305 304 283 289 298 58 123 129 141 151 155 166 169 164 157 163 155 150 146 131 127 122 114 114 115 100 108 119 116 112 99 83 59 74 56 33 91 36 30 56 50 8 8 259 233 191
293 289 285 275 261 263 291 303 141 171 159 166 163 161 165 162 162 162 169 159 153 144 133 131 132 130 136 139 147 141 139 127 108 104 90 67 75 63 4 67 69 32 53 114 79 324 280 227 219
283 280 272 258 247 225 255 290 179 173 171 173 168 164 167 166 173 169 156 151 148 144 139 146 147 141 143 141 151 128 116 113 115 119 104 85 85 52 356 52 55 343 343 50 71 13 351 359 345
276 272 277 235 233 255 258 253 170 174 177 175 174 171 170 171 176 166 158 159 149 146 146 144 135 141 145 144 137 112 103 107 116 115 111 109 105 79 48 71 42 298 36 46 32 53 12 346 357
300 307 317 320 279 283 287 261 178 177 180 173 174 172 172 179 180 165 163 161 152 155 153 147 142 140 140 139 132 126 124 135 125 114 115 129 128 79 26 108 41 348 56 51 51 19 349 303 322
301 308 316 318 309 294 289 263 200 176 181 176 176 177 178 184 180 166 165 166 161 164 158 154 150 147 146 145 153 151 155 159 136 133 137 143 128 104 10 83 112 56 78 52 34 4 302 222 21
292 303 307 307 297 279 286 281 206 171 182 179 183 183 183 183 177 169 170 170 170 168 160 156 156 158 160 156 160 159 153 171 150 131 142 154 149 163 153 82 138 77 106 80 44 32 334 347 85
291 300 308 308 300 287 284 263 192 180 180 179 186 184 183 181 178 177 176 172 173 169 166 166 161 162 164 159 164 159 146 193 147 136 159 169 160 154 75 94 53 26 127 115 54 15 13 350 349
293 302 305 305 304 313 319 295 198 185 186 186 185 182 180 178 176 174 177 175 176 174 170 163 161 162 162 169 175 173 177 191 171 161 160 167 174 171 151 152 108 355 45 106 99 82 338 325 331
294 305 303 306 319 318 316 303 220 182 178 181 180 180 175 175 174 174 180 180 178 175 171 164 163 165 164 177 180 182 187 190 167 156 148 167 174 183 172 161 157 184 107 96 71 72 8 351 7
285 292 293 301 349 296 270 259 234 158 174 170 165 167 170 174 172 172 176 175 176 175 170 162 164 168 170 183 182 191 203 192 161 158 158 181 172 182 181 171 168 190 180 130 123 92 96 55 28
276 286 294 303 256 249 242 249 187 129 147 143 150 155 161 166 168 168 171 173 175 174 170 165 168 173 178 186 185 189 198 194 177 178 176 195 183 179 175 173 165 191 169 158 161 180 318 43 41
269 270 279 299 301 308 311 299 76 105 117 126 139 148 158 164 166 166 169 171 175 174 172 170 171 176 182 186 188 184 188 195 197 201 197 199 210 175 157 157 165 189 189 190 172 221 203 176 216
262 268 284 286 290 298 303 43 3 355 123 135 143 151 158 162 165 165 166 170 173 175 174 174 173 178 185 187 184 187 192 207 208 177 200 204 189 152 151 160 171 184 195 201 175 228 239 168 207
253 278 291 292 301 302 12 64 246 300 299 150 154 151 156 160 165 164 166 171 174 177 177 176 176 181 185 185 186 190 193 199 202 188 198 211 180 158 154 167 177 185 185 191 206 232 211 202 220
250 250 276 287 292 300 313 127 207 222 212 180 161 147 152 164 167 165 166 169 173 176 176 178 178 181 186 192 193 191 186 193 195 199 201 197 181 166 169 179 185 189 191 191 198 232 227 205 220
288 275 261 264 280 287 299 109 302 330 310 147 128 130 138 158 164 163 165 168 173 177 178 181 184 186 189 192 189 192 190 190 194 198 197 189 188 185 184 189 193 200 201 195 197 217 231 217 217